Location: Poughquag
(41.6090°N, 73.6820°W)
Time: 04:08:47
(UTC-04:00)

Amateur Radio Satellites - All Passes

Search period start: 23 August 2017 03:38
Search period end: 24 August 2017 03:38
Location: Poughquag, 41.6090°N, 73.6820°W

Satellite Date Start Highest point End Downlink Frequencies (MHz)
Time Altitude Azimuth
CUBESAT XI-V 23 Aug 03:44:59 03:48:59 29° 68° (ENE) 03:53:02 437.345
BEESAT 23 Aug 03:55:19 03:59:43 38° 262° (W) 04:04:09 436.000
ITAMSAT 1 23 Aug 03:59:29 04:04:16 37° 98° (E) 04:09:01 435.822/435.867
Gurwin Techsat 1B 23 Aug 04:07:15 04:11:22 23° 296° (WNW) 04:15:29 435.225
Oscar 19 23 Aug 04:16:04 04:18:28 13° 301° (WNW) 04:20:52 437.125/150
AO-85 23 Aug 04:17:07 04:19:45 17° 112° (ESE) 04:22:21 145.980
YUBILEINY 23 Aug 04:27:39 04:35:29 39° 274° (W) 04:43:18 435.215
ITUPSAT 1 23 Aug 04:32:53 04:36:00 17° 268° (W) 04:39:08 437.325
BEESAT 3 23 Aug 04:38:49 04:42:43 53° 118° (ESE) 04:46:39 437.485
AO-7 23 Aug 04:41:50 04:50:12 80° 107° (ESE) 04:58:30 .
KKS-1 23 Aug 04:49:04 04:53:28 62° 73° (ENE) 04:57:54 437.445
BEESAT 2 23 Aug 04:58:43 05:02:06 27° 114° (ESE) 05:05:33 435.950
MOZHAYETS 4 23 Aug 04:59:44 05:00:32 10° 271° (W) 05:01:20
STARS 23 Aug 05:20:49 05:25:08 56° 73° (ENE) 05:29:26 437.465
CUBESAT XI-V 23 Aug 05:22:17 05:26:17 28° 265° (W) 05:30:21 437.345
ITAMSAT 1 23 Aug 05:39:13 05:43:34 28° 294° (WNW) 05:47:54 435.822/435.867
SO-50 23 Aug 05:39:29 05:39:43 10° 33° (NNE) 05:39:58 436.795
DOVE 4 23 Aug 05:51:40 05:55:48 36° 96° (E) 05:59:44 437.250
AO-85 23 Aug 05:56:07 05:59:48 39° 308° (NW) 06:03:31 145.980
BEESAT 3 23 Aug 06:17:48 06:20:35 18° 317° (NW) 06:23:22 437.485
NUDT-PHONESAT 23 Aug 06:20:22 06:22:45 16° 93° (E) 06:25:07 437.300
LilacSat-2 23 Aug 06:22:16 06:25:32 25° 95° (E) 06:28:48 437.200
XW-2D 23 Aug 06:23:20 06:26:35 25° 96° (E) 06:29:46 145.860 - 145.880
CUTE-I 23 Aug 06:26:09 06:30:30 25° 94° (E) 06:34:50 437.470
KKS-1 23 Aug 06:28:33 06:30:25 12° 269° (W) 06:32:17 437.445
XW-2B 23 Aug 06:34:16 06:37:46 32° 97° (E) 06:41:14 145.730 - 145.750
AO-7 23 Aug 06:35:44 06:42:06 25° 307° (NW) 06:48:26 .
BEESAT 2 23 Aug 06:36:16 06:39:47 29° 312° (NW) 06:43:20 435.950
NO-84 23 Aug 06:42:29 06:44:44 19° 30° (NNE) 06:47:05 435.350 FM
XW-2C 23 Aug 06:53:15 06:57:04 58° 100° (E) 07:00:51 145.795 - 145.815
STRAND 1 23 Aug 06:53:53 06:58:36 40° 69° (ENE) 07:03:20 437.568
STARS 23 Aug 06:59:38 07:01:48 13° 269° (W) 07:03:57 437.465
PCSat 23 Aug 07:03:01 07:08:12 44° 54° (NE) 07:13:21 145.827
XW-2F 23 Aug 07:03:17 07:07:07 74° 102° (ESE) 07:10:57 145.980 - 146.000
SO-50 23 Aug 07:16:44 07:21:12 53° 53° (NE) 07:25:43 436.795
KAITUO 1B 23 Aug 07:24:09 07:27:57 76° 285° (WNW) 07:31:44 145.475/437.950
CUBEBUG 2 23 Aug 07:25:30 07:27:15 12° 91° (E) 07:29:01 437.445
HO-68 23 Aug 07:27:58 07:34:22 34° 96° (E) 07:40:42 435.675
DOVE 4 23 Aug 07:29:54 07:33:14 21° 295° (WNW) 07:36:27 437.250
SEEDS 23 Aug 07:30:38 07:33:27 17° 92° (E) 07:36:15 437.485
Tancredo 1 23 Aug 07:34:13 07:35:49 14° 132° (SE) 07:37:25 437.200
NUDT-PHONESAT 23 Aug 07:53:18 07:56:43 33° 288° (WNW) 08:00:07 437.300
LilacSat-2 23 Aug 07:56:37 07:59:42 23° 291° (WNW) 08:02:46 437.200
XW-2D 23 Aug 07:57:34 08:00:37 23° 291° (WNW) 08:03:40 145.860 - 145.880
CUTE-I 23 Aug 08:05:42 08:10:40 41° 291° (WNW) 08:15:36 437.470
AAUSAT CUBESAT 2 23 Aug 08:08:09 08:11:15 20° 93° (E) 08:14:18 437.432
XW-2B 23 Aug 08:09:03 08:11:42 18° 293° (WNW) 08:14:21 145.730 - 145.750
XW-2A 23 Aug 08:14:51 08:18:05 40° 99° (E) 08:21:20 145.665 - 145.685
NO-84 23 Aug 08:19:19 08:22:15 44° 225° (SW) 08:25:23 435.350 FM
CUTE 1.7 + AOD 2 23 Aug 08:22:16 08:26:35 78° 284° (WNW) 08:30:51 437.475
XW-2C 23 Aug 08:29:37 08:30:45 11° 296° (WNW) 08:31:52 145.795 - 145.815
STRAND 1 23 Aug 08:33:44 08:37:53 25° 265° (W) 08:42:03 437.568
PCSat 23 Aug 08:46:51 08:51:21 27° 252° (WSW) 08:55:50 145.827
UWE-3 23 Aug 08:47:09 08:51:23 59° 101° (E) 08:55:42 435.000/436.395/437.385
FO-29 23 Aug 08:47:17 08:54:23 49° 70° (ENE) 09:00:49 435.910
Oscar 11 23 Aug 08:47:21 08:50:40 21° 93° (E) 08:53:58 .
PRISM 23 Aug 08:55:26 08:56:48 11° 62° (ENE) 08:58:10 437.425
SO-50 23 Aug 08:58:12 09:01:16 18° 249° (WSW) 09:04:22 436.795
CUBEBUG 2 23 Aug 09:00:02 09:04:11 57° 286° (WNW) 09:08:25 437.445
SEEDS 23 Aug 09:05:18 09:09:18 40° 288° (WNW) 09:13:16 437.485
Tancredo 1 23 Aug 09:07:48 09:10:40 55° 329° (NNW) 09:13:32 437.200
O/OREOS (USA 219) 23 Aug 09:13:23 09:17:46 59° 109° (ESE) 09:22:11 437.305
HO-68 23 Aug 09:15:26 09:22:12 48° 294° (WNW) 09:28:59 435.675
ZACube-1 23 Aug 09:20:56 09:25:15 77° 101° (E) 09:29:40 437.345
ISS 23 Aug 09:24:58 09:28:10 50° 140° (SE) 09:31:22 437.550
nSIGHT-1 23 Aug 09:29:50 09:33:03 60° 141° (SE) 09:36:17 .
UNISAT 6 23 Aug 09:35:02 09:39:07 43° 72° (ENE) 09:43:11 437.425
Max Valier Satellite 23 Aug 09:39:27 09:40:56 12° 91° (E) 09:42:23 145.860
AO-73 23 Aug 09:40:33 09:44:51 73° 284° (WNW) 09:49:14 145.935
AAUSAT CUBESAT 2 23 Aug 09:42:59 09:46:45 34° 290° (WNW) 09:50:30 437.432
XW-2A 23 Aug 09:49:15 09:50:26 11° 295° (WNW) 09:51:38 145.665 - 145.685
RS-15 23 Aug 09:56:55 10:07:32 37° 105° (ESE) 10:18:14 29.354- 29.394
TIGRISAT 23 Aug 10:09:06 10:13:25 84° 261° (W) 10:17:42 435.000
Oscar 11 23 Aug 10:22:54 10:26:52 35° 290° (WNW) 10:30:48 .
DELFI C3 23 Aug 10:24:01 10:27:58 59° 101° (E) 10:31:51 145.870
UWE-3 23 Aug 10:25:18 10:27:22 13° 296° (WNW) 10:29:27 435.000/436.395/437.385
EO-88 23 Aug 10:26:01 10:29:25 34° 98° (E) 10:32:47 145.990 - 145.960
PRISM 23 Aug 10:27:21 10:31:30 68° 258° (WSW) 10:35:40 437.425
FO-29 23 Aug 10:32:50 10:39:29 33° 264° (W) 10:45:37 435.910
Tancredo 1 23 Aug 10:44:33 10:46:19 15° 346° (NNW) 10:48:06 437.200
O/OREOS (USA 219) 23 Aug 10:54:55 10:57:35 15° 307° (NW) 11:00:16 437.305
ZACube-1 23 Aug 10:59:55 11:00:56 11° 298° (WNW) 11:01:58 437.345
ISS 23 Aug 11:01:57 11:04:47 26° 337° (NNW) 11:07:38 437.550
M-CUBED/EXP-1 PRIME 23 Aug 11:05:12 11:09:40 57° 68° (ENE) 11:14:16 437.505
nSIGHT-1 23 Aug 11:06:54 11:09:38 24° 339° (NNW) 11:12:23 .
NANOSAT C BR1 23 Aug 11:08:32 11:11:43 21° 67° (ENE) 11:14:53 145.865
AIST 2D 23 Aug 11:10:51 11:14:14 55° 76° (ENE) 11:17:41 435.315
Max Valier Satellite 23 Aug 11:11:26 11:14:58 44° 287° (WNW) 11:18:31 145.860
UNISAT 6 23 Aug 11:13:21 11:16:02 16° 268° (W) 11:18:42 437.425
POLYITAN 1 23 Aug 11:15:22 11:18:56 28° 69° (ENE) 11:22:31 437.675
EO-79 23 Aug 11:29:58 11:33:54 40° 71° (ENE) 11:37:49 145.935-145.965
QB50P2 23 Aug 11:30:10 11:34:10 44° 72° (ENE) 11:38:11 145.880/145.840
LO-87 23 Aug 11:47:03 11:50:26 42° 99° (E) 11:53:47 145.935 - 145.965
BUGSAT 1 23 Aug 11:47:55 11:50:03 14° 64° (ENE) 11:52:10 437.445
ESTCUBE 1 23 Aug 11:48:02 11:52:02 29° 96° (E) 11:55:59 437.505/2401.250
DUCHIFAT 1 23 Aug 11:56:24 12:00:32 64° 74° (ENE) 12:04:40 145.980
EO-88 23 Aug 12:00:32 12:02:47 16° 293° (WNW) 12:05:02 145.990 - 145.960
DELFI C3 23 Aug 12:00:49 12:02:12 12° 297° (WNW) 12:03:34 145.870
RS-15 23 Aug 12:06:59 12:19:13 70° 308° (NW) 12:31:35 29.354- 29.394
Gurwin Techsat 1B 23 Aug 12:12:52 12:14:03 11° 56° (ENE) 12:15:13 435.225
Oscar 19 23 Aug 12:14:49 12:18:00 17° 61° (ENE) 12:21:13 437.125/150
Tancredo 1 23 Aug 12:21:04 12:22:24 12° 7° (N) 12:23:44 437.200
ISS 23 Aug 12:40:13 12:42:06 14° 358° (N) 12:43:59 437.550
M-CUBED/EXP-1 PRIME 23 Aug 12:41:37 12:44:22 16° 264° (W) 12:47:11 437.505
NANOSAT C BR1 23 Aug 12:43:27 12:47:13 32° 263° (W) 12:51:00 145.865
nSIGHT-1 23 Aug 12:45:02 12:46:53 14° 359° (N) 12:48:43 .
AO-85 23 Aug 12:46:19 12:49:37 21° 46° (NE) 12:53:05 145.980
POLYITAN 1 23 Aug 12:51:15 12:54:40 24° 265° (W) 12:58:07 437.675
BEESAT 3 23 Aug 12:55:26 12:59:06 33° 50° (NE) 13:02:42 437.485
SPROUT 23 Aug 13:05:30 13:09:38 50° 100° (E) 13:13:46 437.525
EO-79 23 Aug 13:07:04 13:09:48 17° 267° (W) 13:12:33 145.935-145.965
QB50P2 23 Aug 13:07:41 13:10:11 15° 268° (W) 13:12:40 145.880/145.840
DX 1 23 Aug 13:13:21 13:15:20 13° 91° (E) 13:17:18 434.975-435.025
BEESAT 2 23 Aug 13:15:58 13:19:04 21° 45° (NE) 13:22:09 435.950
VELOX 1 23 Aug 13:18:51 13:23:11 54° 100° (E) 13:27:29 145.980
BUGSAT 1 23 Aug 13:21:02 13:24:59 49° 260° (W) 13:28:56 437.445
LO-87 23 Aug 13:22:05 13:23:28 12° 295° (WNW) 13:24:51 145.935 - 145.965
ESTCUBE 1 23 Aug 13:24:54 13:28:44 27° 292° (WNW) 13:32:32 437.505/2401.250
DUCHIFAT 1 23 Aug 13:35:47 13:36:35 10° 270° (W) 13:37:24 145.980
50 SAT 23 Aug 13:40:33 13:43:37 32° 98° (E) 13:46:39 437.505
Gurwin Techsat 1B 23 Aug 13:47:46 13:53:04 76° 74° (ENE) 13:58:24 435.225
AO-7 23 Aug 13:50:34 13:57:04 26° 54° (NE) 14:03:35 .
Oscar 19 23 Aug 13:51:40 13:56:46 66° 258° (WSW) 14:01:56 437.125/150
Tancredo 1 23 Aug 13:55:38 13:58:15 30° 26° (NNE) 14:00:52 437.200
ISS 23 Aug 14:16:55 14:19:30 21° 18° (NNE) 14:22:04 437.550
UKube-1 23 Aug 14:20:04 14:24:13 45° 100° (E) 14:28:20 .
nSIGHT-1 23 Aug 14:21:30 14:24:08 22° 19° (NNE) 14:26:47 .
RS-15 23 Aug 14:24:12 14:34:30 29° 336° (NNW) 14:44:45 29.354- 29.394
AO-85 23 Aug 14:26:00 14:30:13 49° 242° (WSW) 14:34:44 145.980
BEESAT 3 23 Aug 14:33:22 14:36:29 22° 248° (WSW) 14:39:33 437.485
SPROUT 23 Aug 14:42:42 14:45:07 15° 296° (WNW) 14:47:32 437.525
DX 1 23 Aug 14:47:35 14:51:52 57° 287° (WNW) 14:56:06 434.975-435.025
BEESAT 2 23 Aug 14:53:10 14:57:00 42° 243° (WSW) 15:00:48 435.950
ITUPSAT 1 23 Aug 14:55:31 14:57:26 12° 90° (E) 14:59:21 437.325
VELOX 1 23 Aug 14:56:39 14:59:10 15° 297° (WNW) 15:01:41 145.980
MOZHAYETS 4 23 Aug 15:14:05 15:17:09 17° 92° (E) 15:20:12
50 SAT 23 Aug 15:14:14 15:15:58 14° 294° (WNW) 15:17:43 437.505
ITAMSAT 1 23 Aug 15:17:26 15:22:31 59° 72° (ENE) 15:27:38 435.822/435.867
Tancredo 1 23 Aug 15:30:49 15:33:23 28° 223° (SW) 15:35:54 437.200
Gurwin Techsat 1B 23 Aug 15:31:04 15:33:35 13° 271° (W) 15:36:05 435.225
YUBILEINY 23 Aug 15:31:24 15:39:48 52° 89° (E) 15:48:10 435.215
AO-7 23 Aug 15:40:38 15:49:00 78° 253° (WSW) 15:57:25 .
ISS 23 Aug 15:53:02 15:56:18 83° 219° (SW) 15:59:34 437.550
BEESAT 23 Aug 15:54:39 15:59:18 51° 100° (E) 16:03:56 436.000
UKube-1 23 Aug 15:57:05 15:59:52 17° 296° (WNW) 16:02:39 .
nSIGHT-1 23 Aug 15:57:33 16:00:47 71° 218° (SW) 16:04:00 .
ITUPSAT 1 23 Aug 16:30:57 16:35:43 71° 286° (WNW) 16:40:29 437.325
KKS-1 23 Aug 16:42:07 16:43:29 11° 90° (E) 16:44:51 437.445
RS-15 23 Aug 16:43:03 16:52:34 25° 12° (NNE) 17:01:49 29.354- 29.394
MOZHAYETS 4 23 Aug 16:50:06 16:54:32 47° 288° (WNW) 16:58:58
DOVE 4 23 Aug 16:55:59 17:00:55 42° 71° (ENE) 17:05:43 437.250
ITAMSAT 1 23 Aug 16:59:00 17:02:21 17° 268° (W) 17:05:42 435.822/435.867
LilacSat-2 23 Aug 17:05:28 17:07:26 14° 65° (ENE) 17:09:25 437.200
XW-2D 23 Aug 17:05:58 17:07:50 13° 65° (ENE) 17:09:42 145.860 - 145.880
XW-2B 23 Aug 17:16:26 17:18:53 17° 67° (ENE) 17:21:22 145.730 - 145.750
CUBESAT XI-V 23 Aug 17:17:38 17:22:21 69° 102° (ESE) 17:27:01 437.345
YUBILEINY 23 Aug 17:29:02 17:36:52 35° 290° (WNW) 17:44:43 435.215
BEESAT 23 Aug 17:33:27 17:36:40 18° 297° (WNW) 17:39:53 436.000
XW-2C 23 Aug 17:34:48 17:38:00 27° 70° (ENE) 17:41:16 145.795 - 145.815
AO-7 23 Aug 17:38:48 17:43:00 15° 272° (W) 17:47:15 .
XW-2F 23 Aug 17:44:12 17:47:34 33° 72° (ENE) 17:51:00 145.980 - 146.000
O/OREOS (USA 219) 23 Aug 17:45:14 17:47:41 14° 52° (NE) 17:50:09 437.305
CUTE-I 23 Aug 17:47:51 17:52:52 43° 69° (ENE) 17:57:53 437.470
HO-68 23 Aug 17:57:32 18:03:15 27° 59° (ENE) 18:08:59 435.675
KAITUO 1B 23 Aug 18:03:54 18:07:28 46° 74° (ENE) 18:11:04 145.475/437.950
KKS-1 23 Aug 18:16:04 18:20:28 67° 286° (WNW) 18:24:50 437.445
SEEDS 23 Aug 18:23:26 18:25:21 13° 63° (ENE) 18:27:16 437.485
CUBEBUG 2 23 Aug 18:25:00 18:26:07 11° 62° (ENE) 18:27:14 437.445
NUDT-PHONESAT 23 Aug 18:31:51 18:35:31 77° 258° (WSW) 18:39:13 437.300
DOVE 4 23 Aug 18:34:26 18:38:41 24° 266° (W) 18:42:51 437.250
LilacSat-2 23 Aug 18:37:44 18:41:20 43° 262° (W) 18:44:59 437.200
XW-2D 23 Aug 18:38:01 18:41:36 43° 261° (W) 18:45:15 145.860 - 145.880
STARS 23 Aug 18:45:55 18:50:16 77° 286° (WNW) 18:54:37 437.465
XW-2A 23 Aug 18:47:20 18:49:12 14° 67° (ENE) 18:51:05 145.665 - 145.685
XW-2B 23 Aug 18:49:24 18:52:48 33° 263° (W) 18:56:16 145.730 - 145.750
CUBESAT XI-V 23 Aug 18:56:47 18:59:07 14° 298° (WNW) 19:01:26 437.345
RS-15 23 Aug 18:57:13 19:08:59 51° 44° (NE) 19:20:06 29.354- 29.394
AAUSAT CUBESAT 2 23 Aug 18:59:11 19:01:26 14° 64° (ENE) 19:03:42 437.432
STRAND 1 23 Aug 19:05:52 19:08:05 13° 89° (E) 19:10:18 437.568
XW-2C 23 Aug 19:09:26 19:12:12 19° 266° (W) 19:15:00 145.795 - 145.815
CUTE 1.7 + AOD 2 23 Aug 19:14:31 19:18:44 74° 75° (ENE) 19:23:00 437.475
XW-2F 23 Aug 19:19:28 19:21:48 16° 267° (W) 19:24:10 145.980 - 146.000
O/OREOS (USA 219) 23 Aug 19:23:04 19:27:35 69° 251° (WSW) 19:32:07 437.305
CUTE-I 23 Aug 19:28:43 19:33:03 25° 266° (W) 19:37:24 437.470
KAITUO 1B 23 Aug 19:40:30 19:41:44 11° 270° (W) 19:42:58 145.475/437.950
Oscar 11 23 Aug 19:42:48 19:45:36 17° 65° (ENE) 19:48:25 .
HO-68 23 Aug 19:43:23 19:50:27 63° 257° (WSW) 19:57:34 435.675
UWE-3 23 Aug 19:44:15 19:48:14 45° 73° (ENE) 19:52:12 435.000/436.395/437.385
SEEDS 23 Aug 19:56:21 20:00:31 59° 260° (W) 20:04:43 437.485
CUBEBUG 2 23 Aug 19:57:57 20:02:12 69° 259° (W) 20:06:21 437.445
ZACube-1 23 Aug 20:16:44 20:20:48 57° 74° (ENE) 20:24:52 437.345
XW-2A 23 Aug 20:18:44 20:21:40 29° 263° (W) 20:24:38 145.665 - 145.685
AAUSAT CUBESAT 2 23 Aug 20:32:24 20:36:27 51° 261° (W) 20:40:33 437.432
AO-73 23 Aug 20:35:55 20:40:02 86° 76° (ENE) 20:44:11 145.935
STRAND 1 23 Aug 20:42:42 20:47:48 75° 287° (WNW) 20:52:53 437.568
EO-88 23 Aug 21:04:43 21:07:00 16° 67° (ENE) 21:09:18 145.990 - 145.960
DELFI C3 23 Aug 21:09:17 21:12:53 33° 71° (ENE) 21:16:30 145.870
RS-15 23 Aug 21:10:10 21:21:36 55° 249° (WSW) 21:32:27 29.354- 29.394
Oscar 11 23 Aug 21:17:16 21:21:23 44° 261° (W) 21:25:32 .
UWE-3 23 Aug 21:22:40 21:24:56 14° 269° (W) 21:27:12 435.000/436.395/437.385
SO-50 23 Aug 21:32:58 21:35:35 15° 109° (ESE) 21:38:11 436.795
FO-29 23 Aug 21:42:22 21:47:15 33° 95° (E) 21:51:53 435.910
PCSat 23 Aug 21:44:55 21:49:51 37° 111° (ESE) 21:54:49 145.827
Max Valier Satellite 23 Aug 21:49:49 21:53:26 78° 76° (ENE) 21:57:06 145.860
ZACube-1 23 Aug 21:56:10 21:57:27 11° 270° (W) 21:58:44 437.345
TIGRISAT 23 Aug 22:00:51 22:03:58 19° 93° (E) 22:07:07 435.000
PRISM 23 Aug 22:09:36 22:12:06 16° 92° (E) 22:14:35 437.425
LO-87 23 Aug 22:23:48 22:26:19 18° 68° (ENE) 22:28:51 145.935 - 145.965
EO-88 23 Aug 22:37:07 22:40:24 32° 263° (W) 22:43:43 145.990 - 145.960
DELFI C3 23 Aug 22:44:53 22:47:43 18° 267° (W) 22:50:34 145.870
ESTCUBE 1 23 Aug 22:47:41 22:51:31 28° 68° (ENE) 22:55:22 437.505/2401.250
UNISAT 6 23 Aug 23:02:21 23:06:42 83° 283° (WNW) 23:11:07 437.425
SO-50 23 Aug 23:11:05 23:15:32 59° 306° (NW) 23:20:00 436.795
FO-29 23 Aug 23:27:36 23:32:18 30° 295° (WNW) 23:36:47 435.910
PCSat 23 Aug 23:28:22 23:33:16 33° 309° (NW) 23:38:11 145.827
TIGRISAT 23 Aug 23:36:46 23:40:47 38° 289° (WNW) 23:44:51 435.000
NO-84 23 Aug 23:37:16 23:38:59 14° 128° (SE) 23:40:40 435.350 FM
PRISM 23 Aug 23:43:41 23:47:34 41° 289° (WNW) 23:51:25 437.425
LO-87 23 Aug 23:56:30 23:59:34 26° 264° (W) 00:02:38 145.935 - 145.965
SPROUT 23 Aug 23:58:45 00:02:40 38° 71° (ENE) 00:06:38 437.525
AIST 2D 24 Aug 00:08:26 00:12:01 69° 102° (ESE) 00:15:33 435.315
DX 1 24 Aug 00:09:28 00:11:26 13° 62° (ENE) 00:13:25 434.975-435.025
50 SAT 24 Aug 00:12:49 00:14:28 13° 66° (ENE) 00:16:07 437.505
VELOX 1 24 Aug 00:15:50 00:20:07 49° 72° (ENE) 00:24:26 145.980
M-CUBED/EXP-1 PRIME 24 Aug 00:18:28 00:22:27 37° 102° (ESE) 00:26:07 437.505
ESTCUBE 1 24 Aug 00:24:21 00:28:14 28° 264° (W) 00:32:09 437.505/2401.250
NANOSAT C BR1 24 Aug 00:26:59 00:30:52 36° 98° (E) 00:34:45 145.865
POLYITAN 1 24 Aug 00:34:44 00:38:50 50° 100° (E) 00:42:56 437.675
EO-79 24 Aug 00:49:30 00:53:44 75° 103° (ESE) 00:57:55 145.935-145.965
QB50P2 24 Aug 00:50:02 00:54:16 84° 103° (ESE) 00:58:30 145.880/145.840
SO-50 24 Aug 00:55:50 00:56:57 11° 326° (NNW) 00:58:04 436.795
BUGSAT 1 24 Aug 01:02:52 01:05:56 21° 95° (E) 01:09:01 437.445
NO-84 24 Aug 01:13:20 01:16:07 40° 323° (NW) 01:18:50 435.350 FM
UKube-1 24 Aug 01:14:24 01:18:25 39° 71° (ENE) 01:22:28 .
DUCHIFAT 1 24 Aug 01:15:27 01:19:37 70° 285° (WNW) 01:23:46 145.980
SPROUT 24 Aug 01:35:46 01:38:42 18° 267° (W) 01:41:40 437.525
YUBILEINY 24 Aug 01:41:44 01:48:42 26° 66° (ENE) 01:55:36 435.215
DX 1 24 Aug 01:42:43 01:47:04 65° 258° (WSW) 01:51:26 434.975-435.025
50 SAT 24 Aug 01:43:38 01:46:47 35° 262° (W) 01:49:58 437.505
M-CUBED/EXP-1 PRIME 24 Aug 01:53:24 01:56:33 20° 301° (WNW) 01:59:32 437.505
VELOX 1 24 Aug 01:54:08 01:56:49 16° 268° (W) 01:59:31 145.980
ITUPSAT 1 24 Aug 02:02:10 02:05:02 16° 62° (ENE) 02:07:55 437.325
Oscar 19 24 Aug 02:03:03 02:08:00 43° 99° (E) 02:12:56 437.125/150
NANOSAT C BR1 24 Aug 02:03:18 02:06:19 20° 294° (WNW) 02:09:21 145.865
Gurwin Techsat 1B 24 Aug 02:04:13 02:08:49 29° 95° (E) 02:13:24 435.225
POLYITAN 1 24 Aug 02:11:49 02:14:12 15° 296° (WNW) 02:16:36 437.675
MOZHAYETS 4 24 Aug 02:16:26 02:19:26 18° 64° (ENE) 02:22:27
EO-79 24 Aug 02:28:04 02:28:52 10° 299° (WNW) 02:29:39 145.935-145.965
BUGSAT 1 24 Aug 02:37:48 02:41:19 30° 290° (WNW) 02:44:51 437.445
UKube-1 24 Aug 02:51:34 02:54:35 18° 266° (W) 02:57:37 .
BEESAT 24 Aug 03:00:56 03:05:36 61° 73° (ENE) 03:10:18 436.000
ITAMSAT 1 24 Aug 03:30:56 03:34:40 20° 93° (E) 03:38:23 435.822/435.867
